[[{"header":{"parameterUnit":"m.s-1","parameterCategory":1,"la1":30.2991,"la2":30.254,"lo1":-89.0895,"lo2":-89.0444,"dy":0.0017,"dx":0.0017,"nx":28,"ny":28,"refTime":"2023-08-13T09:00:00:Z","depth":0,"parameterNumber":2,"parameterNumberName":"U-component_of_WINDS"},"data":[0,0,0,0,0,0,0,0,0,0,0,0,0,0,0,0,0,0,0,0,0,0,0,0,0,0,0,0,0,0,0,0,0,0,0,0,0,0,0,0,0,0,0,0,0,0,0,0,0,0,0,0,0,0,0,0,0,0,3.5818,3.5819,0,3.592,3.5921,3.5922,3.587,3.5867,3.5865,3.5862,3.5965,3.597,3.5976,0,0,0,0,0,0,0,0,0,0,0,0,0,3.5574,3.5579,3.5818,3.5819,3.582,3.592,3.5921,3.5922,3.587,3.5867,3.5864,3.5861,3.5964,3.597,3.5976,0,0,0,0,0,0,0,0,0,0,0,0,0,3.5678,3.558,3.5817,3.5806,3.5806,3.5919,3.5921,3.5923,3.5871,3.5867,3.5863,3.5859,3.5961,3.5969,3.5977,3.6106,0,0,3.6001,3.6004,0,0,0,0,0,0,0,0,3.5673,3.5687,3.5807,3.5807,3.5808,3.5878,3.5873,3.5984,3.5872,3.5847,3.5862,3.5857,3.5939,3.5949,3.5977,3.6111,3.6116,3.6002,3.6007,3.601,3.6012,0,0,0,0,0,0,0,3.5665,3.5683,3.5858,3.5808,3.5809,3.5795,3.5805,3.5894,3.5914,3.5848,3.5845,3.5858,3.5939,3.5969,3.5979,3.6117,3.6001,3.6009,3.6013,3.6016,3.6359,3.6363,0,0,0,0,0,0,3.5659,3.5677,3.5855,3.5861,3.5729,3.5803,3.5814,3.586,3.5913,3.5918,3.5861,3.5855,3.5958,3.597,3.5982,3.6135,3.601,3.6017,3.6022,3.6355,3.636,3.6365,0,0,0,0,0,0,3.5654,3.5676,3.5851,3.5768,3.5789,3.5811,3.5862,3.5864,3.5894,3.5923,3.5926,3.5889,3.5955,3.5971,3.6075,3.6138,3.6021,3.6028,3.635,3.6356,3.6362,3.6442,0,0,0,0,0,0,3.5647,3.5674,3.5724,3.577,3.5794,3.5943,3.5866,3.5869,3.5908,3.5901,3.595,3.5954,3.5953,3.6064,3.6083,3.6146,3.6034,3.6344,3.6353,3.636,3.6434,3.6451,3.6465,0,0,0,0,0,3.5639,3.5743,3.5727,3.5749,3.5858,3.5947,3.5961,3.5958,3.5913,3.5963,3.5981,3.5952,3.6128,3.6075,3.6096,3.6163,3.634,3.635,3.636,3.6427,3.6447,3.6465,0,0,0,0,0,0,3.5705,3.5749,3.5732,3.5854,3.5897,3.5938,3.6001,3.5981,3.6037,3.6028,3.6022,3.6033,3.6141,3.6162,3.6102,3.6289,3.6227,3.6241,3.6271,3.629,3.6306,3.6297,3.6041,0,0,0,0,0,3.5734,3.5804,3.5838,3.5943,3.5965,3.598,3.6018,3.6013,3.6057,3.6074,3.61,3.6143,3.6208,3.6251,3.6312,3.6437,3.6445,3.6493,3.6509,3.6521,3.6533,3.6598,3.6619,3.6397,3.6397,3.6397,0,0,3.5794,3.5827,3.5871,3.5957,3.5989,3.606,3.5995,3.6074,3.6125,3.6086,3.6185,3.6206,3.6253,3.6368,3.6419,3.6389,3.6597,3.6534,3.6544,3.6549,3.661,3.6631,3.665,3.6404,3.6402,3.6401,0,0,3.594,3.5973,3.6062,3.6096,3.6145,3.6154,3.6175,3.6219,3.6231,3.633,3.6301,3.6362,3.6475,3.6509,3.6541,3.6697,3.6671,3.6717,3.6797,3.686,3.6877,3.6892,3.6945,3.6964,3.6729,3.6729,3.6729,0,3.6008,3.6115,3.6111,3.619,3.6227,3.6195,3.6284,3.6317,3.6384,3.641,3.6375,3.6513,3.6543,3.6663,3.6701,3.6729,3.6751,3.671,3.6875,3.689,3.6905,3.6955,3.6975,3.6734,3.6734,3.6733,3.6733,0,3.6195,3.6269,3.6334,3.6399,3.6444,3.6529,3.6535,3.6581,3.6571,3.6583,3.6683,3.6717,3.6783,3.6812,3.6804,3.693,3.6909,3.6876,3.6812,3.6931,3.6978,3.6997,3.6742,3.674,3.6738,3.6737,0,0,3.6385,3.6446,3.647,3.6497,3.6549,3.6605,3.6687,3.6751,3.6789,3.6836,3.6903,3.6997,3.6965,3.7001,3.6996,3.7052,3.7169,3.701,3.7011,3.7036,3.7307,3.7331,3.7354,3.7153,3.7157,3.716,3.7302,0,3.6532,3.6675,3.6673,3.6805,3.6871,3.684,3.6911,3.6949,3.6962,3.7019,3.7032,3.7098,3.7052,3.7073,3.7127,3.7144,3.7223,3.7133,3.7212,3.7215,3.7199,3.7379,3.7405,3.7538,3.7321,3.7324,3.7326,0,3.6723,3.6775,3.6914,3.6953,3.698,3.7044,3.7101,3.7157,3.7199,3.7204,3.7243,3.7229,3.7309,3.7245,3.7355,3.7294,3.7326,3.7338,3.7343,3.7349,3.7277,3.7387,3.7581,3.7599,3.7356,3.7353,3.7351,0,3.6845,3.695,3.7046,3.7071,3.7119,3.7164,3.7186,3.7224,3.7262,3.7312,3.7336,3.7395,3.7427,3.7472,3.7473,3.7426,3.7582,3.7519,3.7587,3.7587,3.762,3.7617,3.7819,3.7644,3.7644,3.7644,3.7643,0,3.7008,3.7093,3.71,3.7159,3.7252,3.7248,3.734,3.7358,3.7392,3.7452,3.7429,3.7486,3.7484,3.7542,3.7543,3.7631,3.7647,3.7651,3.765,3.7652,3.7651,3.7672,3.7662,3.7649,3.7648,3.7647,3.7646,0,3.716,3.7168,3.727,3.7307,3.7318,3.7385,3.7416,3.747,3.748,3.7556,3.7574,3.7589,3.7655,3.766,3.7737,3.7737,3.7844,3.7834,3.783,3.7827,3.7893,3.7886,3.8113,3.8142,3.7951,3.7953,3.7955,0,3.7263,3.7327,3.737,3.7409,3.7433,3.7496,3.7534,3.7531,3.7572,3.7623,3.767,3.7734,3.7784,3.789,3.7907,3.7965,3.7955,3.803,3.7963,3.7962,3.7952,3.7948,3.7953,3.8043,3.8045,3.8047,3.8048,0,3.7443,3.7443,3.7499,3.7556,3.7602,3.7647,3.7689,3.7721,3.7723,3.777,3.7836,3.7875,3.7952,3.8014,3.807,3.8091,3.807,3.8069,3.8087,3.8089,3.8083,3.8084,3.7862,3.8064,3.8062,3.8061,3.806,3.806,3.7571,3.7626,3.7664,3.7726,3.7757,3.7796,3.7848,3.7864,3.7919,3.7981,3.7977,3.8049,3.8087,3.8159,3.8185,3.824,3.8215,3.8242,3.8248,3.8254,3.826,3.8076,3.8251,3.8251,3.825,3.825,3.8249,0,3.7748,3.7771,3.7828,3.7886,3.7934,3.791,3.7954,3.7996,3.806,3.8097,3.8146,3.8221,3.8281,3.8302,3.8359,3.84,3.8391,3.8415,3.8411,3.8415,3.8281,3.8258,3.8421,3.8421,3.8421,3.8421,3.842,3.842,3.7846,3.7936,3.794,3.8044,3.8065,3.8137,3.8163,3.8198,3.8227,3.8311,3.8361,3.8374,3.8404,3.8463,3.8515,3.852,3.8541,3.8568,3.8568,3.8442,3.8425,3.8408,3.8387,3.8574,3.8574,3.8697,3.8698,3.8699]},{"header":{"parameterUnit":"m.s-1","parameterCategory":1,"la1":30.2991,"la2":30.254,"lo1":-89.0895,"lo2":-89.0444,"dy":0.0017,"dx":0.0017,"nx":28,"ny":28,"refTime":"2023-08-13T09:00:00:Z","depth":0,"parameterNumber":3,"parameterNumberName":"V-component_of_WINDS"},"data":[0,0,0,0,0,0,0,0,0,0,0,0,0,0,0,0,0,0,0,0,0,0,0,0,0,0,0,0,0,0,0,0,0,0,0,0,0,0,0,0,0,0,0,0,0,0,0,0,0,0,0,0,0,0,0,0,0,0,0.3174,0.3175,0,0.3241,0.3242,0.3242,0.3248,0.3247,0.3246,0.3246,0.3316,0.3318,0.3321,0,0,0,0,0,0,0,0,0,0,0,0,0,0.3051,0.3053,0.3174,0.3175,0.3176,0.3241,0.3242,0.3243,0.3248,0.3247,0.3246,0.3245,0.3315,0.3318,0.3321,0,0,0,0,0,0,0,0,0,0,0,0,0,0.311,0.3054,0.3174,0.3186,0.3188,0.3241,0.3242,0.3243,0.3248,0.3247,0.3246,0.3245,0.3314,0.3318,0.3322,0.3367,0,0,0.3333,0.3335,0,0,0,0,0,0,0,0,0.3107,0.3114,0.3183,0.3185,0.3187,0.3235,0.3224,0.3285,0.3248,0.3225,0.3245,0.3244,0.329,0.3296,0.3311,0.3371,0.3374,0.3334,0.3336,0.3338,0.3339,0,0,0,0,0,0,0,0.3103,0.3112,0.32,0.3184,0.3187,0.3188,0.3195,0.3236,0.3263,0.3227,0.3228,0.3235,0.3291,0.3307,0.3312,0.3375,0.3334,0.3337,0.3339,0.3341,0.3474,0.3475,0,0,0,0,0,0,0.3096,0.3108,0.3198,0.3202,0.3143,0.3191,0.3199,0.3221,0.3263,0.3268,0.3236,0.3235,0.3301,0.3308,0.3315,0.3371,0.3338,0.3341,0.3343,0.3473,0.3474,0.3476,0,0,0,0,0,0,0.3093,0.3104,0.3196,0.3155,0.3167,0.3195,0.3219,0.3223,0.3239,0.3269,0.3274,0.3248,0.33,0.331,0.3354,0.3373,0.3343,0.3346,0.3471,0.3473,0.3475,0.3483,0,0,0,0,0,0,0.309,0.3103,0.3121,0.3156,0.3169,0.3233,0.322,0.3225,0.3245,0.3245,0.3282,0.3287,0.33,0.3348,0.3358,0.3378,0.3349,0.347,0.3472,0.3474,0.3481,0.3485,0.3488,0,0,0,0,0,0.3085,0.3121,0.3122,0.3132,0.3192,0.3234,0.3242,0.3257,0.3247,0.3265,0.3284,0.3285,0.3369,0.3353,0.3363,0.3385,0.3469,0.3472,0.3474,0.3479,0.3484,0.3488,0,0,0,0,0,0,0.3089,0.3126,0.3127,0.3175,0.3201,0.3235,0.3259,0.3261,0.3292,0.329,0.3307,0.3315,0.3359,0.3376,0.3357,0.3431,0.3418,0.3423,0.3418,0.3423,0.3426,0.3421,0.3353,0,0,0,0,0,0.3095,0.3126,0.3157,0.3196,0.3209,0.3231,0.325,0.3259,0.3287,0.3299,0.3322,0.3349,0.3382,0.3403,0.3435,0.3483,0.3491,0.3503,0.3506,0.3509,0.3514,0.354,0.3545,0.3485,0.3485,0.3485,0,0,0.3108,0.3132,0.3151,0.3197,0.3219,0.325,0.3241,0.3275,0.3299,0.3304,0.3347,0.3365,0.3397,0.3443,0.3464,0.3459,0.3532,0.3513,0.3515,0.3518,0.3543,0.3549,0.3554,0.3487,0.3486,0.3486,0,0,0.3149,0.317,0.3205,0.3226,0.3258,0.3272,0.328,0.3314,0.3325,0.3368,0.3372,0.3401,0.3457,0.3479,0.3498,0.3544,0.3546,0.3554,0.3572,0.3597,0.3602,0.3607,0.3623,0.3629,0.3558,0.3558,0.3558,0,0.3161,0.3209,0.3222,0.3256,0.3276,0.3281,0.3316,0.3336,0.3377,0.3391,0.3383,0.3452,0.3474,0.3525,0.3536,0.3552,0.3561,0.355,0.36,0.3605,0.3609,0.3625,0.3631,0.3559,0.3559,0.3559,0.3559,0,0.3223,0.3256,0.328,0.3318,0.3341,0.3375,0.3393,0.3415,0.342,0.3435,0.3479,0.3505,0.3541,0.3554,0.3561,0.3605,0.3601,0.3597,0.3584,0.3615,0.363,0.3637,0.356,0.356,0.3559,0.3559,0,0,0.3269,0.3313,0.3322,0.3338,0.3373,0.3399,0.3433,0.3468,0.3485,0.3513,0.3542,0.3588,0.3584,0.3605,0.3614,0.3636,0.367,0.3629,0.363,0.3636,0.3721,0.3724,0.3731,0.3671,0.3673,0.3674,0.3718,0,0.3314,0.3374,0.3386,0.3438,0.3469,0.3472,0.3502,0.3526,0.3541,0.3568,0.3584,0.3617,0.3609,0.3621,0.3643,0.3661,0.3688,0.3658,0.3699,0.37,0.3691,0.3739,0.3743,0.3783,0.3724,0.3725,0.3726,0,0.3375,0.3402,0.3457,0.3487,0.35,0.3526,0.3558,0.3585,0.3612,0.3621,0.3643,0.3649,0.3684,0.3669,0.3718,0.3697,0.3714,0.3726,0.3728,0.3733,0.3715,0.3745,0.3797,0.3803,0.3735,0.3735,0.3734,0,0.3402,0.3454,0.3493,0.3507,0.3543,0.3561,0.3577,0.3603,0.3622,0.365,0.3663,0.3695,0.3713,0.3737,0.3751,0.3739,0.3799,0.3785,0.3807,0.3807,0.382,0.3819,0.3876,0.383,0.383,0.383,0.383,0,0.3451,0.3485,0.3506,0.353,0.3567,0.358,0.3617,0.3632,0.3655,0.3683,0.3688,0.3713,0.373,0.3758,0.3769,0.3808,0.3816,0.3824,0.3826,0.3824,0.3823,0.3836,0.3833,0.3832,0.3831,0.3831,0.3831,0,0.349,0.3505,0.3548,0.3577,0.3585,0.3611,0.3636,0.366,0.3673,0.3708,0.3716,0.3738,0.3771,0.3787,0.3828,0.3836,0.3879,0.388,0.3869,0.3871,0.3892,0.389,0.3959,0.3969,0.3917,0.3917,0.3917,0,0.352,0.3546,0.3577,0.3595,0.3611,0.364,0.366,0.3673,0.3693,0.3725,0.3745,0.3777,0.3804,0.3856,0.3876,0.3907,0.3909,0.3931,0.3914,0.391,0.3909,0.3908,0.391,0.3934,0.3935,0.3935,0.3935,0,0.3572,0.3578,0.3606,0.3636,0.3659,0.3683,0.3707,0.3722,0.3739,0.3761,0.3794,0.3815,0.3856,0.3888,0.392,0.3936,0.3939,0.394,0.3947,0.3945,0.3938,0.3942,0.3878,0.3939,0.3939,0.3939,0.3938,0.3938,0.3608,0.363,0.3655,0.3686,0.3705,0.3727,0.375,0.3765,0.3793,0.3827,0.3833,0.3868,0.3893,0.3936,0.3953,0.3981,0.3976,0.3986,0.3989,0.3991,0.3992,0.3933,0.3987,0.3987,0.3987,0.3987,0.3987,0,0.366,0.3676,0.3704,0.3736,0.376,0.3759,0.3785,0.3805,0.3835,0.3858,0.3884,0.3922,0.3953,0.3974,0.4005,0.4023,0.4025,0.4031,0.403,0.4033,0.3995,0.3986,0.4029,0.4029,0.4028,0.4028,0.4028,0.4028,0.369,0.3728,0.3737,0.3784,0.3799,0.3833,0.3848,0.3868,0.3886,0.3927,0.3953,0.3966,0.3988,0.4021,0.4049,0.4054,0.4065,0.4072,0.4077,0.4041,0.4036,0.4032,0.4024,0.4074,0.4074,0.4113,0.4114,0.4114]}]]